Printer-friendly version

IAU Minor Planet Center

Minor Planet Center

MPEC 2005-X10 : 2005 UD

The following Minor Planet Electronic Circular may be linked-to from your own Web pages, but must not otherwise be redistributed electronically.


Read MPEC 2005-X09 Read MPEC 2005-X11


M.P.E.C. 2005-X10                                Issued 2005 Dec. 2, 17:39 UT

     The Minor Planet Electronic Circulars contain information on unusual
         minor planets and routine data on comets.  They are published
   on behalf of Commission 20 of the International Astronomical Union by the
          Minor Planet Center, Smithsonian Astrophysical Observatory,
                          Cambridge, MA 02138, U.S.A.

                  Supported in part by the Brinson Foundation
                  Supported in part by the TABASGO Foundation
             Prepared using the Tamkin Foundation Computer Network

                              MPC@CFA.HARVARD.EDU
          URL http://cfa-www.harvard.edu/iau/mpc.html  ISSN 1523-6714

                                    2005 UD

                           Revision to MPEC 2005-U22

Additional Observations:
     K05U00D 9 1982 11 06.41635 23 32 24.93 +01 48 23.8                 EX010260
     K05U00D 9 1982 11 06.45802 23 32 23.33 +01 48 37.3                 EX010260
     K05U00D HC2001 10 13.48834 02 41 13.96 +30 47 46.2                 EX010644
     K05U00D HC2001 10 13.50237 02 41 11.55 +30 47 44.4                 EX010644
     K05U00D HC2001 10 13.51888 02 41 08.67 +30 47 41.3                 EX010644

Observer details:
260 Siding Spring-DSS.  Measurers G. Forti, R. Haver.  1.2-m Schmidt.
644 Palomar Mountain/NEAT.  Measurers G. Forti, R. Haver.  1.2-m Schmidt.

First and last observations above in comparison with prediction:
Residuals in seconds of arc (or two decimals in degrees) and reference.
821106 260 0.62+ 0.51+    011013 644 57.2+ 62.1+    MPO 90332

Orbital elements:
2005 UD
Epoch 2006 Mar. 6.0 TT = JDT 2453800.5                  MPC
M 130.27296              (2000.0)            P               Q
n   0.68470895     Peri.  207.47474     -0.69723069     +0.69800243
a   1.2748685      Node    19.84377     -0.53710847     -0.35782439
e   0.8721879      Incl.   28.75195     -0.47474610     -0.62028567
P   1.44           H   17.6           G   0.15           U   4
Residuals in seconds of arc
821106 260  0.4+  0.7-    051031 704  0.2-  0.9+    051102 D35 (0.6-  2.5-)
821106 260  1.5+  1.6-    051031 704  0.3-  0.8+    051102 D35  0.4-  1.6-
011013 644  0.0   0.1+    051031 704  0.4-  1.8+    051102 D35 (0.6-  2.6-)
011013 644  0.2-  0.6+    051031 704  0.1+  0.9+    051102 D35  0.2-  1.5-
011013 644  1.0-  0.1+    051031 D35  0.0   0.3-    051103 D35  0.2+  0.7+
051022 703  0.7-  0.4+    051031 D35  0.1-  0.4-    051103 D35  0.0   0.0
051022 703  0.2-  0.3-    051031 D35  0.1-  0.4-    051103 D35  0.1+  0.1-
051022 703  0.1+  0.1-    051031 D35  0.1-  0.8-    051103 D35  0.1-  0.1-
051022 703  0.0   0.0     051031 D35  0.1-  0.6-    051103 D35  0.0   0.0
051022 413  0.2+  0.1-    051031 D35  0.2-  0.6-    051103 D35  0.1+  0.0
051022 413  0.0   0.1-    051031 D35  0.0   0.6-    051103 D35  0.1+  0.1+
051022 J77  0.7-  0.6+    051031 D35  0.2-  0.5-    051103 D35  0.0   0.0
051022 J95  0.1+  0.0     051031 D35  0.1-  0.7-    051103 D35  0.1+  0.1+
051022 J95  0.2+  0.0     051031 D35  0.1-  0.6-    051103 D35  0.0   0.0
051022 J95  0.1+  0.1-    051031 D35  0.0   0.7-    051103 D35  0.1+  0.0
051022 J77  0.2+  0.4+    051031 D35  0.3-  0.7-    051103 D35  0.1+  0.0
051022 J77  0.3-  0.5+    051031 D35  0.2-  0.7-    051103 D35  0.0   0.0
051022 J77  0.2-  0.2-    051031 D35  0.0   0.7-    051103 D35  0.0   0.1+
051022 J77  0.5-  0.1-    051031 D35  0.1-  0.8-    051103 D35  0.1+  0.1+
051022 J77  0.6-  0.5+    051031 D35  0.1-  0.6-    051103 D35  0.2+  0.1+
051022 J77  0.3+  0.6-    051031 D35  0.1-  0.6-    051103 D35  0.1+  0.1+
051022 I77  0.7-  0.3-    051031 D35  0.2-  0.7-    051103 D35  0.1+  0.2+
051022 I77  0.5-  0.3-    051031 D35  0.1-  0.7-    051103 D35  0.1+  0.1-
051022 I77  0.4-  0.4-    051031 D35  0.0   0.6-    051103 D35  0.2+  0.0
051023 703  0.1-  0.0     051031 D35  0.0   0.5-    051103 D35  0.2+  0.1+
051023 703  0.2+  0.1+    051031 D35 (0.4-  4.3-)   051103 D35  0.2+  0.2-
051023 703  0.1-  0.3-    051031 D35 (0.9-  4.9-)   051103 D35  0.1+  0.0
051023 703  0.4-  0.2+    051031 D35 (0.6-  3.0-)   051103 D35  0.2+  0.1+
051023 673  0.1+  0.4+    051031 D35  0.3-  1.3-    051103 D35  0.2+  0.1+
051023 H06  0.1+  0.0     051031 D35 (0.7-  3.1-)   051103 D35  0.2+  0.1+
051023 673  0.1+  0.3+    051031 D35 (0.5-  2.5-)   051103 D35  0.3+  0.3+
051023 734  0.1+  0.2+    051031 D35 (0.5-  2.6-)   051103 D35  0.3+  0.1-
051023 651  0.0   0.6+    051031 D35 (0.7-  2.6-)   051103 D35  0.2+  0.0
051023 H06  0.0   0.4+    051031 D35 (0.7-  2.6-)   051103 D35  0.2+  0.0
051023 651  0.4-  0.5+    051031 D35 (0.5-  2.7-)   051103 D35  0.2+  0.0
051023 673  0.0   0.3+    051031 D35 (0.6-  2.6-)   051103 D35  0.3+  0.1-
051023 734  0.1+  0.1-    051031 D35 (0.5-  2.7-)   051103 D35  0.3+  0.1+
051023 651  0.4-  0.6+    051031 D35 (0.5-  2.7-)   051103 071  0.1+  1.4+
051023 734  0.1+  0.3-    051031 D35 (0.5-  2.7-)   051103 071  0.2-  1.5+
051023 H06  0.2-  0.0     051031 D35 (0.3-  2.9-)   051104 D35  0.1+  0.2+
051023 734  0.2+  0.0     051101 D35 (0.5-  2.4-)   051104 D35  0.0   0.2+
051023 673  0.2+  0.5+    051101 D35  0.0   0.6-    051104 D35  0.0   0.1+
051024 413  0.1+  0.1-    051101 D35  0.2-  0.6-    051104 D35  0.1+  0.1+
051024 413  0.1+  0.1-    051101 D35  0.2-  0.6-    051104 D35  0.1-  0.1+
051024 413  0.0   0.1-    051101 D35 (0.6-  2.5-)   051104 D35  0.1+  1.2+
051026 704  0.1-  0.5+    051101 D35 (0.5-  2.5-)   051104 D35  0.2-  0.8+
051026 704  0.4+  0.5+    051101 D35 (0.6-  2.5-)   051104 D35  0.0   0.2+
051026 704  0.1+  0.5+    051101 D35 (0.5-  2.4-)   051104 D35  0.2-  0.8+
051026 704  0.3-  0.4+    051101 D35 (0.6-  2.5-)   051104 D35  0.0   0.2+
051026 704  0.2+  0.0     051101 D35 (0.4-  2.5-)   051104 D35  0.1+  0.1+
051026 448  0.1-  0.1-    051101 D35 (0.6-  2.4-)   051104 D35  0.0   0.0
051026 448  0.0   0.1-    051101 D35 (0.7-  2.5-)   051104 D35  0.2+  0.1+
051026 448  0.1+  0.5+    051101 D35 (0.7-  2.5-)   051104 D35  0.1+  0.3+
051026 G77  0.0   0.2+    051101 D35 (0.5-  2.5-)   051104 D35  0.0   0.1+
051026 G77  0.4+  0.1+    051101 D35 (0.5-  2.4-)   051104 D35  0.0   0.1+
051026 G77  0.2+  0.0     051101 D35 (0.6-  2.3-)   051104 D35  0.0   0.1+
051026 G77  0.4+  0.0     051101 D35 (0.6-  2.3-)   051104 D35  0.0   0.1+
051026 G77  0.2+  0.0     051101 D35 (0.7-  2.4-)   051104 D35  0.0   0.2+
051027 151  0.1+  0.1+    051101 D35 (0.5-  2.4-)   051104 D35  0.1+  0.0
051027 151  0.0   0.2+    051101 D35 (0.6-  2.4-)   051104 D35  0.1+  0.0
051027 151  0.0   0.5+    051101 D35 (0.6-  2.3-)   051104 D35  0.1+  0.1+
051027 138  0.1+  0.1+    051101 D35 (0.7-  2.3-)   051104 D35  0.1+  0.1+
051027 138  0.1+  0.2+    051101 D35 (0.5-  2.4-)   051104 D35  0.0   0.1+
051027 138  0.1+  0.0     051101 D35 (0.6-  2.4-)   051104 D35  0.2+  0.1+
051028 704  0.3+  1.0+    051101 D35 (0.6-  2.4-)   051104 D35  0.1+  0.1+
051028 704  0.3+  0.6+    051101 D35 (0.7-  2.3-)   051104 D35  0.1+  0.2+
051028 704  0.4+  0.6+    051101 D35 (0.6-  2.4-)   051104 D35  0.1+  0.0
051028 704  0.6+  0.7+    051101 D35 (0.5-  2.4-)   051104 D35  0.2+  0.0
051028 704  0.1+  0.6+    051101 D35  0.3-  0.6-    051104 D35  0.0   0.2+
051029 G88  0.1-  0.4+    051102 D35  0.2-  0.4-    051104 D35  0.1+  0.0
051029 G88  0.0   0.1+    051102 D35 (0.8-  2.0-)   051104 D35  0.0   0.1+
051029 G88  0.1-  0.3+    051102 D35  0.4-  1.4-    051104 D35  0.3+  0.1+
051029 151  0.0   0.4+    051102 D35 (0.7-  2.5-)   051104 D35  0.2+  0.1+
051029 151  0.0   0.4+    051102 D35 (0.6-  2.5-)   051105 D35  0.0   0.4+
051029 151  0.0   0.2+    051102 D35  0.3-  1.5-    051105 D35  0.0   0.3+
051029 151  0.1-  0.1+    051102 D35 (0.6-  2.4-)   051105 D35  0.1+  0.3+
051029 A17  0.2+  0.1-    051102 D35  0.3-  1.4-    051105 D35  0.1+  0.2+
051029 A17  0.0   0.1+    051102 D35 (0.7-  2.4-)   051105 D35  0.0   0.2+
051029 A17  0.0   0.0     051102 D35  0.4-  1.3-    051105 D35  0.6+  1.1+
051030 G88  0.1+  0.3+    051102 D35  0.3-  1.1-    051105 D35  0.0   0.2+
051030 G88  0.0   0.2+    051102 D35 (0.6-  2.4-)   051105 D35  0.1+  0.1+
051030 G88  0.4-  0.2+    051102 D35 (0.7-  2.4-)   051105 D35  0.0   0.1+
051030 151  0.1+  0.1+    051102 D35  0.4-  1.4-    051105 D35  0.1-  0.1+
051030 151  0.1-  0.1+    051102 D35 (0.7-  2.4-)   051105 D35  0.0   0.1+
051030 151  0.1-  0.1+    051102 D35  0.5-  1.4-    051105 D35  0.1+  0.1+
051030 151  0.2+  0.5+    051102 D35 (0.7-  2.4-)   051105 D35  0.1+  0.1+
051030 151  0.1+  0.6+    051102 D35  0.4-  1.4-    051105 D35  0.0   0.1+
051030 151  0.2-  0.9+    051102 D35  0.4-  1.4-    051105 D35  0.1+  0.0
051030 143  0.0   0.3-    051102 D35 (0.6-  2.4-)   051105 D35  0.0   0.2+
051030 143  0.0   0.0     051102 D35 (0.6-  2.4-)   051105 D35  0.0   0.1+
051030 160  0.3+  0.4+    051102 D35  0.3-  1.4-    051108 143  0.5+  0.2+
051030 160  0.0   0.3+    051102 D35 (0.7-  2.5-)   051108 143  0.0   0.3+
051030 160  0.1+  0.6+    051102 D35  0.4-  1.4-    051108 143  0.4-  0.2+
051030 160  0.1+  0.4+    051102 D35 (0.6-  2.3-)   051108 143  0.2-  0.4+
051030 160  0.2-  0.4+    051102 D35  0.5-  1.2-    051117 448  1.3+  0.6+
051031 644  0.1-  0.4+    051102 D35  0.3-  1.5-    051117 448  0.2-  0.3+
051031 644  0.1-  0.3+    051102 D35 (0.5-  2.4-)   051117 448  0.7-  0.1+
051031 644  0.3-  0.4+    051102 D35 (0.5-  2.5-)   051127 711  0.2-  1.2+
051031 704  0.2-  1.8+    051102 D35  0.3-  1.4-    051127 711  0.4+  0.6+

Ephemeris:
2005 UD                  a,e,i = 1.27, 0.87, 29                  q = 0.1629
Date    TT    R. A. (2000) Decl.     Delta      r     Elong.  Phase     V
2005 11 26    23 15.94   +00 24.5    1.060    1.638   106.2    35.4    20.2
2005 12 06    23 25.10   +02 05.9    1.279    1.731    98.9    34.2    20.7
2005 12 16    23 35.07   +03 39.0    1.498    1.816    91.7    32.8    21.2
2005 12 26    23 45.67   +05 08.2    1.715    1.894    84.6    31.1    21.5
2006 01 05    23 56.83   +06 36.1    1.926    1.965    77.6    29.3    21.8
2006 01 15    00 08.42   +08 03.7    2.130    2.029    70.7    27.2    22.0

Gareth V. Williams           (C) Copyright 2005 MPC           M.P.E.C. 2005-X10

Read MPEC 2005-X09 Read MPEC 2005-X11


Our Web policy. Index to the CBAT/MPC/ICQ pages.


Valid HTML 4.01!